Regional Weather Roundup
Issued by NWS Albany, NY

Home | Current Version | Previous Version | Text Only | Print | Product List | Glossary On
Versions: 1 2 3 4 5 6 7 8 9 10 11 12 13 14 15 16 17 18 19 20 21 22 23 24 25 26 27 28 29 30 31 32 33 34 35 36 37 38 39 40 41 42 43 44 45 46 47 48 49 50
000
ASUS41 KALY 231110
RWRALY

NEW YORK STATE HOURLY WEATHER ROUNDUP
NATIONAL WEATHER SERVICE ALBANY NY
700 AM EDT WED MAY 23 2018

NOTE: "FAIR" INDICATES FEW OR NO CLOUDS BELOW 12,000 FEET WITH NO
SIGNIFICANT WEATHER AND/OR NO OBSTRUCTIONS TO VISIBILITY.

NYZ032-033-038>043-046>054-057>066-NYZ062>081-082-084-231200-
EAST


CITY           SKY/WX    TMP DP  RH WIND       PRES   REMARKS
ALBANY         PTSUNNY   60  54  80 NW5       29.93R
GLENS FALLS    FAIR      55  54  96 N3        29.93R
POUGHKEEPSIE   FAIR      59  57  93 CALM      29.90R
NEWBURGH       PTSUNNY   59  59 100 W6        29.91S
MONTGOMERY     CLOUDY    59  58  96 S5        29.90R
WHITE PLAINS   FOG       58  57  97 W6        29.90R VSB 3/4
ISLIP          PTSUNNY   59  59 100 W5        29.90R FOG
NEW YORK CITY  PTSUNNY   62  59  90 CALM      29.90R
CENTRAL PARK   PTSUNNY   61  60  97 CALM      29.93S FOG
$$

NYZ005>009-017-018-044>046-055-056-231200-
CENTRAL


CITY           SKY/WX    TMP DP  RH WIND       PRES   REMARKS
FULTON         FOG       53  52  96 SW5       30.00R VSB<1/4
SYRACUSE       CLOUDY    55  55 100 W5        30.00R
ROME           CLOUDY    55  55 100 W7        30.00R
ELMIRA         CLOUDY    60  57  89 CALM      30.00R
BINGHAMTON     CLOUDY    54  53  97 N12       29.99R
$$

NYZ026>034-041>043-087-231200-
NORTH


CITY           SKY/WX    TMP DP  RH WIND       PRES   REMARKS
WATERTOWN      FOG       53  53 100 SW6       29.97R VSB<1/4
FORT DRUM      NOT AVBL
OGDENSBURG     CLOUDY    56  55  98 SW7       29.94R
MASSENA        CLOUDY    57  57 100 SW10      29.93R
SARANAC LAKE   CLOUDY    52  52 100 SW6       29.95R
PLATTSBURGH    FAIR      55  54  96 MISG      29.91R
$$

NYZ001>004-010>016-019>021-085-231200-
WEST


CITY           SKY/WX    TMP DP  RH WIND       PRES   REMARKS
NIAGARA FALLS  CLOUDY    58  54  86 W6        30.04R FOG
BUFFALO        CLOUDY    57  55  93 W6        30.04R
DUNKIRK        CLOUDY    54  54 100 W6        30.07R FOG
JAMESTOWN      LGT RAIN  53  52  96 NW6       30.08R VSB 1
WELLSVILLE     CLOUDY    57  56  96 N9        30.04R
ROCHESTER      CLOUDY    57  56  96 W8        30.03R FOG
PENN YAN       CLOUDY    58  55  90 NW5       30.02R
$$

             KEY
       WCI = WIND CHILL INDEX
       VSB = VISIBILITY
       HX  = HEAT INDEX
$$



USA.gov is the U.S. government's official web portal to all federal, state and local government web resources and services.